Location: Catacaguana
(10.4120°N, 66.7591°W)
Time: 06:31:24
(UTC+00:00)

Cosmos 864 Rocket - Pass Details

Date: 27 May 2022
Orbit: 952 x 992 km, 82.9° (Epoch: 26 June)

Event Time Altitude Azimuth Distance (km) Brightness Sun altitude
Rises 07:55:38 0° 357° (N) 3,620 7.8 -29.2°
Reaches altitude 10° 07:58:07 10° 358° (N) 2,672 7.1 -28.7°
Maximum altitude 08:04:14 85° 87° (E) 957 4.4 -27.4°
Enters shadow 08:06:24 43° 172° (S) 1,309 4.9 -26.9°
